User: anonymous   Login
Location: Newark
(43.0000°N, 1.6781°W)
Time: 14:24:24
(UTC+00:00)
Language:

Cosmos 2058 Rocket - Orbit

View from above orbital plane
View from above orbital plane
View from above satellite
View from above satellite

Ground track
Ground track

The orbit data is extracted from the following two-line orbital elements,

1 20466U 90010B   24193.29984735  .00000659  00000-0  78895-4 0  9995
2 20466  82.5035 116.5000 0021263 134.1953 226.1013 14.82491766859663
Epoch (UTC): 11 July 2024 07:11:46
Eccentricity: 0.0021263
inclination: 82.5035°
perigee height: 606 km
apogee height: 636 km
right ascension of ascending node: 116.5000°
argument of perigee: 134.1953°
revolutions per day: 14.82491766
mean anomaly at epoch: 226.1013°
orbit number at epoch: 85966

The dashed part of the orbit path shows where the satellite is in the earth's shadow,  

DLR